^^
Your Local Weather - Clay, NY Station Historical Data
Daily Summary for May 13, 2017 Units:  English    Metric   Both
« Previous Day
Next Day »
Daily Weekly Monthly Yearly Custom
  High: Low: Average:
Temperature: 55.5 °F 49.0 °F 52.4 °F
Dew Point: 49.0 °F 43.6 °F 46.7 °F
Humidity: 92% 69% 81%
Wind Speed: 4.0mph 0.0mph 1.2mph
Wind Gust: 8.0mph - -
Wind- - SSE
Pressure: 29.89 in 29.76 in -
Precipitation: 0.17 in    
Historical Graphs
 
 
Tabular Data for May 13, 2017
Time Temperature Dew Point Pressure Wind Wind Speed Wind Gust Humidity Rainfall Rate (Hourly) solar
00:02 55.5 °F 47.0 °F 29.88 in West 1.0 mph 2.0 mph 73% 0.00 in 0 W/m2
00:08 55.5 °F 47.0 °F 29.89 in West 1.0 mph 3.0 mph 73% 0.00 in 0 W/m2
00:14 55.5 °F 47.0 °F 29.89 in West 1.0 mph 2.0 mph 73% 0.00 in 0 W/m2
00:19 55.5 °F 47.0 °F 29.89 in West 1.0 mph 1.0 mph 73% 0.00 in 0 W/m2
00:26 55.5 °F 46.6 °F 29.89 in West 1.0 mph 1.0 mph 72% 0.00 in 0 W/m2
00:32 55.5 °F 46.6 °F 29.89 in Calm   1.0 mph 72% 0.00 in 0 W/m2
00:38 55.4 °F 46.5 °F 29.89 in Calm   1.0 mph 72% 0.00 in 0 W/m2
00:44 55.4 °F 46.5 °F 29.89 in Calm   1.0 mph 72% 0.00 in 0 W/m2
00:50 55.4 °F 46.5 °F 29.89 in Calm     72% 0.00 in 0 W/m2
00:56 55.3 °F 46.4 °F 29.88 in Calm     72% 0.00 in 0 W/m2
01:02 55.3 °F 46.8 °F 29.88 in Calm     73% 0.00 in 0 W/m2
01:08 55.2 °F 46.7 °F 29.88 in Calm   1.0 mph 73% 0.00 in 0 W/m2
01:14 55.1 °F 46.6 °F 29.88 in Calm     73% 0.00 in 0 W/m2
01:20 55.0 °F 46.5 °F 29.88 in Calm     73% 0.00 in 0 W/m2
01:26 54.9 °F 46.4 °F 29.88 in Calm     73% 0.00 in 0 W/m2
01:32 54.9 °F 46.8 °F 29.88 in Calm     74% 0.00 in 0 W/m2
01:38 54.7 °F 46.6 °F 29.88 in Calm     74% 0.00 in 0 W/m2
01:44 54.7 °F 46.6 °F 29.88 in Calm     74% 0.00 in 0 W/m2
01:50 54.6 °F 46.5 °F 29.88 in Calm     74% 0.00 in 0 W/m2
01:56 54.5 °F 46.7 °F 29.88 in Calm     75% 0.00 in 0 W/m2
02:02 54.4 °F 47.0 °F 29.88 in Calm     76% 0.00 in 0 W/m2
02:08 54.1 °F 47.0 °F 29.87 in Calm     77% 0.00 in 0 W/m2
02:14 53.9 °F 47.2 °F 29.87 in Calm     78% 0.00 in 0 W/m2
02:20 53.7 °F 47.3 °F 29.87 in Calm     79% 0.00 in 0 W/m2
02:26 53.5 °F 47.1 °F 29.87 in Calm     79% 0.00 in 0 W/m2
02:32 53.4 °F 47.4 °F 29.87 in Calm     80% 0.00 in 0 W/m2
02:38 53.2 °F 47.2 °F 29.87 in Calm     80% 0.00 in 0 W/m2
02:44 53.1 °F 47.4 °F 29.87 in Calm     81% 0.00 in 0 W/m2
02:52 52.9 °F 47.2 °F 29.88 in Calm     81% 0.00 in 0 W/m2
02:58 53.0 °F 47.3 °F 29.88 in Calm   1.0 mph 81% 0.00 in 0 W/m2
03:04 53.0 °F 47.7 °F 29.88 in Calm     82% 0.00 in 0 W/m2
03:10 53.1 °F 47.4 °F 29.88 in Calm   1.0 mph 81% 0.00 in 0 W/m2
03:16 53.0 °F 47.3 °F 29.88 in WSW 1.0 mph 2.0 mph 81% 0.00 in 0 W/m2
03:24 52.9 °F 47.6 °F 29.88 in SW 1.0 mph 4.0 mph 82% 0.07 in 0 W/m2
03:30 52.5 °F 47.5 °F 29.88 in South 2.0 mph 2.0 mph 83% 0.12 in 0 W/m2
03:36 52.1 °F 47.4 °F 29.88 in SSW 2.0 mph 2.0 mph 84% 0.09 in 0 W/m2
03:42 51.8 °F 47.4 °F 29.88 in SSW 1.0 mph 2.0 mph 85% 0.10 in 0 W/m2
03:48 51.6 °F 47.5 °F 29.88 in SSW 1.0 mph 2.0 mph 86% 0.06 in 0 W/m2
03:54 51.4 °F 47.7 °F 29.88 in SSW 1.0 mph 2.0 mph 87% 0.04 in 0 W/m2
04:00 51.2 °F 47.5 °F 29.88 in SSW 2.0 mph 2.0 mph 87% 0.04 in 0 W/m2
04:06 51.1 °F 47.7 °F 29.88 in SSE 2.0 mph 4.0 mph 88% 0.05 in 0 W/m2
04:12 50.9 °F 47.5 °F 29.88 in SSW 2.0 mph 2.0 mph 88% 0.05 in 0 W/m2
04:18 50.9 °F 47.5 °F 29.88 in South 1.0 mph 2.0 mph 88% 0.04 in 0 W/m2
04:24 50.8 °F 47.7 °F 29.88 in South 1.0 mph 3.0 mph 89% 0.00 in 0 W/m2
04:30 50.8 °F 47.7 °F 29.88 in South 1.0 mph 1.0 mph 89% 0.00 in 0 W/m2
04:36 50.7 °F 47.6 °F 29.88 in Calm   1.0 mph 89% 0.00 in 0 W/m2
04:42 50.6 °F 47.5 °F 29.88 in Calm   2.0 mph 89% 0.00 in 0 W/m2
04:48 50.6 °F 47.5 °F 29.88 in Calm   2.0 mph 89% 0.00 in 0 W/m2
04:54 50.5 °F 47.7 °F 29.87 in Calm     90% 0.00 in 0 W/m2
05:00 50.5 °F 47.7 °F 29.87 in Calm     90% 0.00 in 0 W/m2
05:05 50.5 °F 47.7 °F 29.87 in South 1.0 mph 1.0 mph 90% 0.00 in 0 W/m2
05:12 50.4 °F 47.6 °F 29.87 in Calm     90% 0.00 in 0 W/m2
05:18 50.3 °F 47.5 °F 29.87 in Calm     90% 0.00 in 0 W/m2
05:24 50.3 °F 47.5 °F 29.87 in Calm   2.0 mph 90% 0.00 in 0 W/m2
05:29 50.3 °F 47.5 °F 29.87 in Calm     90% 0.00 in 0 W/m2
05:36 50.3 °F 47.5 °F 29.86 in Calm     90% 0.00 in 0 W/m2
05:42 50.2 °F 47.4 °F 29.86 in Calm     90% 0.00 in 0 W/m2
05:48 50.2 °F 47.4 °F 29.86 in Calm     90% 0.00 in 0 W/m2
05:54 50.2 °F 47.4 °F 29.86 in Calm     90% 0.00 in 0 W/m2
06:00 50.1 °F 47.3 °F 29.86 in Calm     90% 0.05 in 0 W/m2
06:06 50.1 °F 47.3 °F 29.86 in Calm     90% 0.07 in 0 W/m2
06:12 50.2 °F 47.7 °F 29.86 in Calm     91% 0.07 in 5 W/m2
06:18 50.1 °F 47.6 °F 29.86 in Calm     91% 0.04 in 5 W/m2
06:24 50.0 °F 47.5 °F 29.87 in Calm     91% 0.00 in 7 W/m2
06:30 49.9 °F 47.4 °F 29.87 in Calm     91% 0.00 in 7 W/m2
06:36 49.9 °F 47.4 °F 29.88 in Calm     91% 0.00 in 9 W/m2
06:42 49.9 °F 47.4 °F 29.88 in Calm     91% 0.00 in 11 W/m2
06:48 50.0 °F 47.5 °F 29.88 in Calm     91% 0.00 in 9 W/m2
06:54 50.0 °F 47.5 °F 29.88 in Calm     91% 0.00 in 12 W/m2
07:00 50.0 °F 47.8 °F 29.88 in Calm     92% 0.00 in 16 W/m2
07:06 50.1 °F 47.9 °F 29.88 in Calm     92% 0.04 in 18 W/m2
07:12 50.2 °F 48.0 °F 29.88 in Calm     92% 0.08 in 25 W/m2
07:18 50.2 °F 48.0 °F 29.88 in Calm   1.0 mph 92% 0.07 in 21 W/m2
07:24 50.3 °F 48.1 °F 29.88 in Calm     92% 0.04 in 25 W/m2
07:30 50.3 °F 48.1 °F 29.88 in Calm     92% 0.00 in 35 W/m2
07:36 50.5 °F 48.3 °F 29.88 in Calm     92% 0.00 in 40 W/m2
07:42 50.6 °F 48.4 °F 29.88 in Calm     92% 0.00 in 44 W/m2
07:48 50.7 °F 48.5 °F 29.88 in Calm     92% 0.00 in 39 W/m2
07:54 50.7 °F 48.5 °F 29.88 in Calm     92% 0.00 in 49 W/m2
08:00 50.7 °F 48.5 °F 29.88 in Calm     92% 0.00 in 40 W/m2
08:06 50.8 °F 48.6 °F 29.88 in Calm   1.0 mph 92% 0.00 in 23 W/m2
08:12 50.7 °F 48.5 °F 29.88 in SSE 1.0 mph 1.0 mph 92% 0.00 in 51 W/m2
08:18 50.7 °F 48.5 °F 29.88 in SW 2.0 mph 4.0 mph 92% 0.27 in 54 W/m2
08:24 50.6 °F 48.4 °F 29.87 in SW 1.0 mph 2.0 mph 92% 0.08 in 51 W/m2
08:30 50.6 °F 48.4 °F 29.88 in SW 1.0 mph 1.0 mph 92% 0.04 in 51 W/m2
08:36 50.7 °F 48.5 °F 29.88 in SW 1.0 mph 2.0 mph 92% 0.00 in 40 W/m2
08:42 50.8 °F 48.6 °F 29.88 in SE 1.0 mph 3.0 mph 92% 0.00 in 42 W/m2
08:48 50.5 °F 48.3 °F 29.88 in SE 2.0 mph 3.0 mph 92% 0.00 in 37 W/m2
08:54 50.0 °F 47.5 °F 29.88 in SE 3.0 mph 6.0 mph 91% 0.00 in 40 W/m2
09:00 49.9 °F 47.1 °F 29.88 in SSE 3.0 mph 3.0 mph 90% 0.00 in 47 W/m2
09:06 50.1 °F 47.3 °F 29.88 in SE 1.0 mph 3.0 mph 90% 0.00 in 56 W/m2
09:12 50.2 °F 47.4 °F 29.88 in Calm     90% 0.00 in 81 W/m2
09:18 50.5 °F 47.7 °F 29.88 in Calm     90% 0.00 in 105 W/m2
09:24 50.8 °F 48.0 °F 29.88 in Calm     90% 0.00 in 120 W/m2
09:30 51.0 °F 48.2 °F 29.88 in Calm     90% 0.00 in 141 W/m2
09:36 51.3 °F 48.5 °F 29.88 in Calm     90% 0.00 in 135 W/m2
09:42 51.6 °F 48.8 °F 29.88 in Calm     90% 0.00 in 156 W/m2
09:48 51.8 °F 49.0 °F 29.88 in Calm   2.0 mph 90% 0.00 in 207 W/m2
09:54 51.9 °F 48.8 °F 29.88 in SE 1.0 mph 1.0 mph 89% 0.00 in 206 W/m2
10:00 52.1 °F 49.0 °F 29.88 in SE 1.0 mph 1.0 mph 89% 0.00 in 200 W/m2
10:06 52.3 °F 48.9 °F 29.88 in SSE 1.0 mph 2.0 mph 88% 0.00 in 190 W/m2
10:12 52.2 °F 48.1 °F 29.88 in SE 2.0 mph 2.0 mph 86% 0.00 in 186 W/m2
10:18 52.2 °F 47.8 °F 29.88 in South 3.0 mph 3.0 mph 85% 0.00 in 146 W/m2
10:24 52.0 °F 47.0 °F 29.88 in SE 2.0 mph 3.0 mph 83% 0.00 in 109 W/m2
10:30 51.9 °F 46.9 °F 29.88 in SSW 2.0 mph 4.0 mph 83% 0.00 in 127 W/m2
10:36 51.8 °F 46.8 °F 29.88 in ESE 2.0 mph 4.0 mph 83% 0.00 in 113 W/m2
10:42 51.6 °F 46.3 °F 29.88 in SE 2.0 mph 4.0 mph 82% 0.00 in 214 W/m2
10:48 51.9 °F 46.6 °F 29.88 in South 2.0 mph 4.0 mph 82% 0.00 in 302 W/m2
10:54 52.5 °F 47.5 °F 29.87 in SE 2.0 mph 4.0 mph 83% 0.00 in 257 W/m2
11:00 52.6 °F 46.9 °F 29.87 in SE 2.0 mph 4.0 mph 81% 0.00 in 269 W/m2
11:06 52.6 °F 46.3 °F 29.87 in South 2.0 mph 5.0 mph 79% 0.00 in 197 W/m2
11:12 52.2 °F 45.5 °F 29.87 in ENE 3.0 mph 4.0 mph 78% 0.00 in 116 W/m2
11:18 51.9 °F 45.6 °F 29.87 in SE 2.0 mph 5.0 mph 79% 0.00 in 56 W/m2
11:24 51.6 °F 45.3 °F 29.86 in ESE 2.0 mph 3.0 mph 79% 0.00 in 47 W/m2
11:30 51.3 °F 45.3 °F 29.87 in SSE 3.0 mph 3.0 mph 80% 0.00 in 53 W/m2
11:36 51.1 °F 45.5 °F 29.86 in SE 4.0 mph 7.0 mph 81% 0.00 in 67 W/m2
11:42 51.1 °F 45.8 °F 29.86 in SE 3.0 mph 5.0 mph 82% 0.00 in 70 W/m2
11:48 51.2 °F 45.9 °F 29.86 in SSE 3.0 mph 5.0 mph 82% 0.00 in 132 W/m2
11:54 51.5 °F 46.2 °F 29.86 in SE 3.0 mph 3.0 mph 82% 0.00 in 202 W/m2
11:59 51.9 °F 46.3 °F 29.86 in SE 2.0 mph 2.0 mph 81% 0.00 in 230 W/m2
12:05 52.3 °F 46.0 °F 29.86 in SSE 3.0 mph 5.0 mph 79% 0.00 in 267 W/m2
12:12 52.6 °F 46.3 °F 29.86 in SE 3.0 mph 6.0 mph 79% 0.00 in 237 W/m2
12:18 52.8 °F 45.8 °F 29.86 in ENE 3.0 mph 6.0 mph 77% 0.00 in 439 W/m2
12:24 53.4 °F 46.0 °F 29.86 in ESE 3.0 mph 7.0 mph 76% 0.00 in 471 W/m2
12:29 53.7 °F 45.2 °F 29.86 in ESE 3.0 mph 3.0 mph 73% 0.00 in 353 W/m2
12:36 53.4 °F 44.6 °F 29.85 in SE 4.0 mph 4.0 mph 72% 0.00 in 265 W/m2
12:42 53.1 °F 44.3 °F 29.85 in ESE 4.0 mph 5.0 mph 72% 0.00 in 165 W/m2
12:48 53.0 °F 44.6 °F 29.85 in SSE 3.0 mph 5.0 mph 73% 0.00 in 148 W/m2
12:54 52.9 °F 44.5 °F 29.85 in ESE 3.0 mph 3.0 mph 73% 0.00 in 118 W/m2
13:00 52.6 °F 44.2 °F 29.85 in SE 3.0 mph 3.0 mph 73% 0.00 in 123 W/m2
13:06 52.4 °F 43.6 °F 29.85 in SE 3.0 mph 4.0 mph 72% 0.00 in 155 W/m2
13:12 52.6 °F 44.2 °F 29.85 in SE 2.0 mph 3.0 mph 73% 0.00 in 183 W/m2
13:18 52.9 °F 44.5 °F 29.84 in SE 2.0 mph 4.0 mph 73% 0.00 in 213 W/m2
13:24 53.1 °F 44.3 °F 29.84 in East 3.0 mph 3.0 mph 72% 0.00 in 220 W/m2
13:30 53.1 °F 43.9 °F 29.84 in ENE 3.0 mph 4.0 mph 71% 0.00 in 178 W/m2
13:36 53.2 °F 44.4 °F 29.84 in SSE 3.0 mph 5.0 mph 72% 0.00 in 216 W/m2
13:42 53.3 °F 44.5 °F 29.84 in ESE 3.0 mph 4.0 mph 72% 0.00 in 262 W/m2
13:48 53.5 °F 45.1 °F 29.84 in ESE 2.0 mph 4.0 mph 73% 0.00 in 308 W/m2
13:54 53.7 °F 45.2 °F 29.83 in SE 3.0 mph 3.0 mph 73% 0.00 in 410 W/m2
14:00 54.1 °F 45.3 °F 29.83 in East 3.0 mph 5.0 mph 72% 0.00 in 515 W/m2
14:06 54.5 °F 46.4 °F 29.83 in ENE 3.0 mph 5.0 mph 74% 0.00 in 473 W/m2
14:12 54.4 °F 45.6 °F 29.83 in NNE 3.0 mph 6.0 mph 72% 0.00 in 446 W/m2
14:18 54.5 °F 45.7 °F 29.83 in SE 4.0 mph 6.0 mph 72% 0.00 in 225 W/m2
14:24 54.1 °F 44.9 °F 29.83 in East 3.0 mph 4.0 mph 71% 0.00 in 183 W/m2
14:30 53.8 °F 44.6 °F 29.83 in ENE 3.0 mph 4.0 mph 71% 0.00 in 181 W/m2
14:36 53.8 °F 45.3 °F 29.83 in East 3.0 mph 4.0 mph 73% 0.00 in 202 W/m2
14:42 54.0 °F 45.2 °F 29.83 in SE 3.0 mph 5.0 mph 72% 0.00 in 167 W/m2
14:48 53.7 °F 44.5 °F 29.82 in South 3.0 mph 7.0 mph 71% 0.00 in 192 W/m2
14:54 53.8 °F 45.0 °F 29.82 in SE 3.0 mph 8.0 mph 72% 0.00 in 171 W/m2
15:00 53.9 °F 44.7 °F 29.82 in East 3.0 mph 7.0 mph 71% 0.00 in 151 W/m2
15:06 53.8 °F 45.0 °F 29.82 in SSE 3.0 mph 7.0 mph 72% 0.00 in 197 W/m2
15:12 53.8 °F 45.0 °F 29.82 in ESE 3.0 mph 5.0 mph 72% 0.00 in 139 W/m2
15:18 53.8 °F 45.0 °F 29.82 in ENE 3.0 mph 5.0 mph 72% 0.00 in 111 W/m2
15:24 53.6 °F 45.2 °F 29.82 in East 3.0 mph 5.0 mph 73% 0.00 in 104 W/m2
15:30 53.6 °F 45.2 °F 29.82 in ESE 3.0 mph 3.0 mph 73% 0.00 in 102 W/m2
15:36 53.7 °F 45.2 °F 29.82 in SSE 2.0 mph 3.0 mph 73% 0.00 in 100 W/m2
15:42 53.8 °F 45.7 °F 29.82 in SE 3.0 mph 4.0 mph 74% 0.00 in 90 W/m2
15:48 53.7 °F 45.2 °F 29.82 in SE 2.0 mph 4.0 mph 73% 0.00 in 83 W/m2
15:54 53.7 °F 45.2 °F 29.81 in SE 2.0 mph 4.0 mph 73% 0.00 in 74 W/m2
16:00 53.6 °F 45.5 °F 29.81 in SE 3.0 mph 3.0 mph 74% 0.00 in 74 W/m2
16:06 53.6 °F 45.5 °F 29.81 in SE 2.0 mph 3.0 mph 74% 0.00 in 90 W/m2
16:12 53.7 °F 46.0 °F 29.81 in SE 2.0 mph 3.0 mph 75% 0.00 in 109 W/m2
16:18 53.8 °F 46.1 °F 29.80 in SSE 2.0 mph 4.0 mph 75% 0.00 in 121 W/m2
16:24 54.0 °F 46.3 °F 29.80 in ESE 2.0 mph 3.0 mph 75% 0.00 in 197 W/m2
16:29 54.3 °F 46.2 °F 29.80 in SSE 2.0 mph 2.0 mph 74% 0.00 in 218 W/m2
16:36 54.6 °F 46.8 °F 29.80 in SSE 3.0 mph 3.0 mph 75% 0.00 in 287 W/m2
16:42 54.9 °F 46.0 °F 29.80 in SSE 2.0 mph 3.0 mph 72% 0.00 in 185 W/m2
16:48 54.9 °F 46.0 °F 29.80 in SSE 3.0 mph 3.0 mph 72% 0.00 in 162 W/m2
16:54 54.8 °F 45.6 °F 29.80 in SE 3.0 mph 4.0 mph 71% 0.00 in 149 W/m2
17:00 55.0 °F 45.8 °F 29.80 in South 3.0 mph 3.0 mph 71% 0.00 in 141 W/m2
17:06 54.9 °F 45.3 °F 29.80 in SSE 3.0 mph 3.0 mph 70% 0.00 in 113 W/m2
17:12 54.9 °F 45.3 °F 29.80 in SSE 3.0 mph 3.0 mph 70% 0.00 in 121 W/m2
17:18 54.8 °F 45.6 °F 29.80 in SSE 4.0 mph 6.0 mph 71% 0.00 in 123 W/m2
17:24 54.9 °F 45.3 °F 29.80 in SE 3.0 mph 4.0 mph 70% 0.00 in 137 W/m2
17:30 54.9 °F 45.3 °F 29.80 in SSE 4.0 mph 4.0 mph 70% 0.00 in 139 W/m2
17:36 55.0 °F 45.8 °F 29.80 in SSE 3.0 mph 4.0 mph 71% 0.00 in 121 W/m2
17:42 54.8 °F 45.2 °F 29.80 in SE 2.0 mph 5.0 mph 70% 0.00 in 121 W/m2
17:48 55.1 °F 45.9 °F 29.80 in South 2.0 mph 5.0 mph 71% 0.00 in 123 W/m2
17:54 55.0 °F 45.0 °F 29.80 in SSE 2.0 mph 4.0 mph 69% 0.00 in 111 W/m2
18:00 55.0 °F 45.4 °F 29.79 in SE 3.0 mph 3.0 mph 70% 0.00 in 107 W/m2
18:06 55.0 °F 45.4 °F 29.79 in SE 1.0 mph 3.0 mph 70% 0.00 in 93 W/m2
18:12 55.0 °F 45.4 °F 29.79 in SSE 1.0 mph 2.0 mph 70% 0.00 in 128 W/m2
18:18 55.1 °F 45.5 °F 29.79 in SE 2.0 mph 3.0 mph 70% 0.00 in 165 W/m2
19:02 54.6 °F 45.4 °F 29.78 in SSE 2.0 mph 2.0 mph 71% 0.00 in 39 W/m2
19:08 54.5 °F 45.7 °F 29.78 in SSE 1.0 mph 2.0 mph 72% 0.00 in 33 W/m2
19:13 54.4 °F 45.6 °F 29.78 in SSE 1.0 mph 2.0 mph 72% 0.00 in 30 W/m2
19:19 54.3 °F 45.5 °F 29.78 in Calm     72% 0.00 in 26 W/m2
19:25 54.2 °F 45.7 °F 29.78 in Calm     73% 0.00 in 25 W/m2
19:32 54.2 °F 45.7 °F 29.78 in Calm     73% 0.00 in 19 W/m2
19:38 54.1 °F 45.6 °F 29.78 in Calm     73% 0.00 in 16 W/m2
19:43 54.0 °F 45.9 °F 29.78 in Calm     74% 0.00 in 14 W/m2
19:49 53.9 °F 46.9 °F 29.78 in Calm     77% 0.00 in 11 W/m2
19:55 53.7 °F 47.3 °F 29.78 in Calm     79% 0.00 in 11 W/m2
20:02 53.5 °F 47.1 °F 29.78 in Calm     79% 0.00 in 7 W/m2
20:08 53.2 °F 46.9 °F 29.78 in Calm     79% 0.00 in 5 W/m2
20:13 53.1 °F 46.1 °F 29.79 in Calm     77% 0.00 in 0 W/m2
20:19 53.0 °F 46.3 °F 29.78 in Calm   1.0 mph 78% 0.00 in 0 W/m2
20:25 52.9 °F 46.6 °F 29.78 in Calm   1.0 mph 79% 0.00 in 0 W/m2
20:31 52.8 °F 46.8 °F 29.78 in NE 1.0 mph 2.0 mph 80% 0.00 in 0 W/m2
20:38 52.6 °F 46.9 °F 29.78 in NE 1.0 mph 2.0 mph 81% 0.00 in 0 W/m2
20:43 52.6 °F 47.3 °F 29.78 in Calm   1.0 mph 82% 0.00 in 0 W/m2
20:49 52.5 °F 47.5 °F 29.78 in Calm     83% 0.00 in 0 W/m2
20:55 52.3 °F 47.6 °F 29.78 in Calm     84% 0.00 in 0 W/m2
21:02 52.0 °F 47.3 °F 29.78 in Calm     84% 0.00 in 0 W/m2
21:08 52.0 °F 47.6 °F 29.78 in Calm   1.0 mph 85% 0.00 in 0 W/m2
21:13 51.9 °F 47.5 °F 29.78 in Calm     85% 0.00 in 0 W/m2
21:19 51.7 °F 47.6 °F 29.78 in Calm     86% 0.00 in 0 W/m2
21:25 51.6 °F 47.5 °F 29.78 in Calm     86% 0.00 in 0 W/m2
21:32 51.5 °F 47.5 °F 29.78 in Calm     86% 0.00 in 0 W/m2
21:38 51.2 °F 47.2 °F 29.78 in Calm     86% 0.00 in 0 W/m2
21:43 51.0 °F 47.3 °F 29.77 in Calm     87% 0.00 in 0 W/m2
21:49 50.8 °F 47.4 °F 29.77 in Calm   1.0 mph 88% 0.00 in 0 W/m2
21:55 50.7 °F 47.3 °F 29.77 in Calm   1.0 mph 88% 0.00 in 0 W/m2
22:02 50.6 °F 47.2 °F 29.77 in Calm     88% 0.00 in 0 W/m2
22:08 50.3 °F 46.9 °F 29.77 in Calm     88% 0.00 in 0 W/m2
22:13 50.3 °F 46.9 °F 29.77 in Calm     88% 0.00 in 0 W/m2
22:19 50.1 °F 47.0 °F 29.77 in Calm     89% 0.00 in 0 W/m2
22:25 50.0 °F 46.9 °F 29.77 in Calm   1.0 mph 89% 0.00 in 0 W/m2
22:32 49.8 °F 46.7 °F 29.77 in Calm     89% 0.00 in 0 W/m2
22:38 49.7 °F 46.6 °F 29.77 in Calm     89% 0.00 in 0 W/m2
22:43 49.7 °F 46.6 °F 29.77 in Calm     89% 0.00 in 0 W/m2
22:49 49.7 °F 46.9 °F 29.77 in Calm     90% 0.00 in 0 W/m2
22:55 49.7 °F 46.9 °F 29.77 in Calm     90% 0.00 in 0 W/m2
23:02 49.7 °F 46.9 °F 29.77 in Calm     90% 0.00 in 0 W/m2
23:08 49.7 °F 46.9 °F 29.76 in Calm     90% 0.00 in 0 W/m2
23:13 49.6 °F 46.8 °F 29.77 in Calm     90% 0.00 in 0 W/m2
23:19 49.4 °F 46.6 °F 29.76 in Calm     90% 0.00 in 0 W/m2
23:25 49.2 °F 46.7 °F 29.76 in Calm     91% 0.00 in 0 W/m2
23:32 49.2 °F 46.7 °F 29.76 in Calm     91% 0.00 in 0 W/m2
23:38 49.1 °F 46.6 °F 29.76 in Calm     91% 0.00 in 0 W/m2
23:43 49.1 °F 46.6 °F 29.76 in Calm     91% 0.00 in 0 W/m2
23:49 49.1 °F 46.6 °F 29.76 in Calm     91% 0.00 in 0 W/m2
23:55 49.0 °F 46.5 °F 29.76 in Calm     91% 0.00 in 0 W/m2
Country Meadow, Clay, NY, USA
Compliments of Weather Underground - 2 mb